This is the latest recevied weather packets stored in our database for station/object OH5GWF-1. If no packets are shown the sender has not sent any weather packets the latest 10 day(s).
| Time | Temp. | Humidity | Pressure | Rain* | Wind** | Luminosity | Snow |
|---|---|---|---|---|---|---|---|
| 1777713478 | 23.33° C | 41% | 1009.1 hPa | 0 mm | - | - | - |
| 1777713054 | 22.78° C | 40% | 1009 hPa | 0 mm | - | - | - |
| 1777712632 | 22.78° C | 41% | 1009.2 hPa | 0 mm | - | - | - |
| 1777712210 | 22.78° C | 41% | 1009.5 hPa | 0 mm | - | - | - |
| 1777711798 | 22.78° C | 41% | 1009.2 hPa | 0 mm | - | - | - |
| 1777711376 | 22.78° C | 41% | 1009.5 hPa | 0 mm | - | - | - |
| 1777710954 | 22.78° C | 40% | 1009.6 hPa | 0 mm | - | - | - |
| 1777710531 | 23.33° C | 40% | 1009.5 hPa | 0 mm | - | - | - |
| 1777710109 | 23.33° C | 40% | 1009.6 hPa | 0 mm | - | - | - |
| 1777709698 | 22.78° C | 41% | 1009.9 hPa | 0 mm | - | - | - |
| 1777709276 | 22.78° C | 42% | 1009.8 hPa | 0 mm | - | - | - |
| 1777708854 | 22.78° C | 41% | 1010 hPa | 0 mm | - | - | - |
| 1777708431 | 22.78° C | 41% | 1010.3 hPa | 0 mm | - | - | - |
| 1777708009 | 23.33° C | 41% | 1010.3 hPa | 0 mm | - | - | - |
| 1777707600 | 22.78° C | 41% | 1010.3 hPa | 0 mm | - | - | - |
| 1777707177 | 23.33° C | 40% | 1010.3 hPa | 0 mm | - | - | - |
| 1777706755 | 23.33° C | 41% | 1010.4 hPa | 0 mm | - | - | - |
| 1777706332 | 23.89° C | 42% | 1010.6 hPa | 0 mm | - | - | - |
| 1777705910 | 22.78° C | 43% | 1010.5 hPa | 0 mm | - | - | - |
| 1777705498 | 22.78° C | 42% | 1010.4 hPa | 0 mm | - | - | - |
| 1777705077 | 22.22° C | 44% | 1010.5 hPa | 0 mm | - | - | - |
| 1777704655 | 21.67° C | 44% | 1010.5 hPa | 0 mm | - | - | - |
| 1777704232 | 21.11° C | 45% | 1010.6 hPa | 0 mm | - | - | - |
| 1777703810 | 20.56° C | 47% | 1010.5 hPa | 0 mm | - | - | - |
| 1777703399 | 19.44° C | 48% | 1010.5 hPa | 0 mm | - | - | - |
* Rain latest hour (hover to see other rain measurements)
** Current wind speed in m/s (hover to see current wind gust speed)